This is the latest recevied weather packets stored in our database for station/object MB7UUE. If no packets are shown the sender has not sent any weather packets the latest 10 day(s).
| Time | Temp. | Humidity | Pressure | Rain* | Wind** | Luminosity | Snow |
|---|---|---|---|---|---|---|---|
| 1788127945 | 17.78° C | 78% | 1006.1 hPa | 0 mm | - | - | - |
| 1788126806 | 18.33° C | 79% | 1006.1 hPa | 0.25 mm | - | - | - |
| 1788125666 | 18.89° C | 77% | 1006 hPa | 0.25 mm | - | - | - |
| 1788124526 | 19.44° C | 75% | 1006 hPa | 0.25 mm | - | - | - |
| 1788123386 | 19.44° C | 70% | 1006.3 hPa | 0 mm | - | - | - |
| 1788122246 | 19.44° C | 69% | 1006.4 hPa | 0 mm | - | - | - |
| 1788121107 | 19.44° C | 68% | 1006.5 hPa | 0 mm | - | - | - |
| 1788119966 | 19.44° C | 66% | 1006.6 hPa | 0 mm | - | - | - |
| 1788118827 | 20° C | 65% | 1006.8 hPa | 0 mm | - | - | - |
| 1788117687 | 20° C | 63% | 1006.8 hPa | 0 mm | - | - | - |
| 1788116547 | 20° C | 60% | 1006.8 hPa | 0 mm | - | - | - |
| 1788115406 | 20° C | 60% | 1006.7 hPa | 0 mm | - | - | - |
| 1788114266 | 20.56° C | 60% | 1006.6 hPa | 0 mm | - | - | - |
| 1788113125 | 20.56° C | 61% | 1006.8 hPa | 0 mm | - | - | - |
| 1788111986 | 21.11° C | 59% | 1006.9 hPa | 0 mm | - | - | - |
| 1788110847 | 21.67° C | 56% | 1006.9 hPa | 0 mm | - | - | - |
| 1788109706 | 22.22° C | 53% | 1007 hPa | 0 mm | - | - | - |
| 1788108566 | 22.22° C | 55% | 1007.1 hPa | 0 mm | - | - | - |
| 1788107425 | 22.78° C | 53% | 1007.2 hPa | 0 mm | - | - | - |
| 1788106286 | 22.78° C | 53% | 1007.3 hPa | 0 mm | - | - | - |
| 1788105146 | 22.78° C | 54% | 1007.5 hPa | 0 mm | - | - | - |
| 1788104006 | 22.78° C | 55% | 1007.6 hPa | 0 mm | - | - | - |
| 1788102866 | 22.78° C | 58% | 1007.6 hPa | 0 mm | - | - | - |
| 1788101726 | 22.78° C | 57% | 1007.6 hPa | 0 mm | - | - | - |
| 1788100586 | 22.78° C | 56% | 1007.8 hPa | 0 mm | - | - | - |
* Rain latest hour (hover to see other rain measurements)
** Current wind speed in m/s (hover to see current wind gust speed)